Flag Weather past 2 weeks in Huntsville, Alabama, U.S.A.

Now
58 °F

Mostly cloudy.


Feels Like: 54 °F
Forecast: 53 / 61 °F
Wind: 22 mph from Southeast

Location: Huntsville International / Jones Field

Current Time: Nov 23, 2014 at 2:07:56 PM

Latest Report: Nov 23, 2014 at 12:53 PM


Visibility: 10 mi

Pressure: 29.59 "Hg

Humidity: 84%

Dew point: 53 °F

Location of HuntsvilleLocation

Historic Weather in Huntsville — Graph

°F

Huntsville temperature yesterday

Maximum temperature yesterday: 66 °F (at 1:53 PM)
Minimum temperature yesterday: 44 °F (at 3:53 AM)
Average temperature yesterday: 56 °F

Past Weeks' High & Low Weather Summary

 TemperatureHumidityPressure
High75 °F (Nov 11, 12:53 PM)100% (Nov 16, 10:53 PM)30.45 "Hg (Nov 16, 10:53 PM)
Low21 °F (Nov 19, 2:53 AM)27% (Nov 8, 12:53 PM)29.59 "Hg (Nov 23, 12:53 PM)
Average44 °F63%30.17 "Hg
* Reported Nov 8 12:53 PM — Nov 23 12:53 PM, Huntsville, Weather by CustomWeather, © 2014

Note: Actual official high and low records may vary slightly from our data, if they occured in-between our weather recording intervals... More about our weather records

Advertising

Huntsville weather history for previous 24 hours

 ConditionsComfort  
Time TempWeatherWind HumidityBarometerVisibility
12:53 PM
Nov 23
58 °FMostly cloudy.22 mph84%29.59 "Hg10 mi
11:53 AM57 °FLight rain. Overcast.20 mph87%29.65 "Hg10 mi
10:53 AM57 °FOvercast.18 mph83%29.74 "Hg10 mi
9:53 AM56 °FLight rain. Mostly cloudy.24 mph84%29.80 "Hg10 mi
9:02 AM55 °FCloudy.20 mph88%29.85 "Hg10 mi
8:53 AM54 °FMostly cloudy.17 mph90%29.84 "Hg10 mi
7:53 AM55 °FOvercast.16 mph83%29.86 "Hg10 mi
6:53 AM54 °FOvercast.16 mph83%29.88 "Hg10 mi
5:53 AM54 °FRain. Fog.20 mph80%29.90 "Hg4 mi
4:53 AM56 °FPassing clouds.17 mph67%29.91 "Hg10 mi
3:53 AM54 °FLight rain. Mostly cloudy.14 mph74%29.93 "Hg10 mi
2:53 AM55 °FOvercast.18 mph64%29.94 "Hg10 mi
1:53 AM56 °FPassing clouds.14 mph55%30.00 "Hg10 mi
12:53 AM57 °FOvercast.12 mph51%30.03 "Hg10 mi
11:53 PM
Nov 22
58 °FMostly cloudy.12 mph51%30.06 "Hg10 mi
10:53 PM58 °FMostly cloudy.9 mph51%30.09 "Hg10 mi
9:53 PM59 °FMostly cloudy.13 mph49%30.10 "Hg10 mi
8:53 PM59 °FMostly cloudy.14 mph49%30.11 "Hg10 mi
7:53 PM58 °FMostly cloudy.8 mph51%30.13 "Hg10 mi
6:53 PM58 °FOvercast.10 mph50%30.14 "Hg10 mi
5:53 PM58 °FHigh level clouds.10 mph50%30.15 "Hg10 mi
4:53 PM59 °FPassing clouds.10 mph49%30.15 "Hg10 mi
3:53 PM63 °FScattered clouds.8 mph47%30.17 "Hg10 mi
2:53 PM65 °FPartly sunny.14 mph44%30.18 "Hg10 mi
Weather by CustomWeather, © 2014

See weather overviewHow to use our weather pages